Ozark, AL

6:59 PM CDT on May 27, 2017 (GMT -0500)
Cairns Army Air Field

Weather History for KOZR - September, 2013

Change the Weather History Date:

Monday, September 23, 2013

  Actual Average Record
Temperature  
Mean Temperature 76 °F -  
Max Temperature 84 °F 80 °F 94 °F (2010)
Min Temperature 69 °F 62 °F 48 °F (1999)
Cooling Degree Days 10    
Growing Degree Days 26 (Base 50)    
Moisture  
Dew Point 73 °F    
Average Humidity 96    
Maximum Humidity 100    
Minimum Humidity 81    
Precipitation  
Precipitation 1.16 in - - ()
Sea Level Pressure  
Sea Level Pressure 29.89 in    
Wind  
Wind Speed 5 mph (ENE)    
Max Wind Speed 14 mph    
Max Gust Speed 17 mph    
Visibility 8 miles    
Events Fog , Rain , Thunderstorm    
Averages and records for this station are not official NWS values.
T = Trace of Precipitation, MM = Missing Value Source: NWS Daily Summary

Daily Weather History Graph

Daily Weather History Graph

Search for Another Location

Airport or City:

Trip Planner

Search our weather history database for the weather conditions in past years. The results will help you decide how hot, cold, wet, or windy it might be!

Date:

Astronomy

Sep. 23, 2013 Rise Set
Actual Time 6:31 AM CDT 6:37 PM CDT
Civil Twilight 6:07 AM CDT 7:02 PM CDT
Nautical Twilight 5:39 AM CDT 7:30 PM CDT
Astronomical Twilight 5:10 AM CDT 7:58 PM CDT
Moon 9:27 PM CDT (9/23) 10:32 AM CDT (9/23)
Length of Visible Light 12h 54m
Length of Day
12h 05m
Waning Gibbous, 81% of the Moon is Illuminated
Sep 23
Waning Gibbous
Sep 26
Last Quarter
Oct 4
New
Oct 11
First Quarter
Oct 18
Full

Hourly Weather History & Observations

Time (CDT) Temp. Heat Index Dew Point Humidity Pressure Visibility Wind Dir Wind Speed Gust Speed Precip Events Conditions
12:58 AM 70.5 °F - 69.1 °F 95% 29.83 in 10.0 mi Calm Calm - N/A   Clear
1:58 AM 70.3 °F - 69.3 °F 96% 29.83 in 10.0 mi NNE 4.6 mph - N/A   Overcast
2:58 AM 70.0 °F - 69.1 °F 97% 29.83 in 10.0 mi Variable 3.5 mph - N/A   Overcast
3:58 AM 70.3 °F - 69.4 °F 97% 29.83 in 10.0 mi Variable 1.2 mph - N/A   Overcast
4:03 AM 69.8 °F - 69.8 °F 100% 29.83 in 10.0 mi NNE 1.2 mph - N/A   Overcast
4:08 AM 69.8 °F - 69.8 °F 100% 29.84 in 10.0 mi Variable 2.3 mph - N/A   Overcast
4:53 AM 71.6 °F - 69.8 °F 94% 29.84 in 10.0 mi Calm Calm - N/A   Overcast
4:58 AM 71.1 °F - 70.3 °F 98% 29.84 in 10.0 mi Variable 1.2 mph - N/A   Overcast
5:26 AM 71.6 °F - 69.8 °F 94% 29.84 in 9.0 mi Variable 3.5 mph - N/A Rain Light Rain
5:46 AM 71.6 °F - 69.8 °F 94% 29.84 in 8.0 mi Variable 2.3 mph - N/A   Overcast
5:58 AM 71.6 °F - 69.8 °F 94% 29.84 in 10.0 mi ENE 8.1 mph - 0.01 in   Overcast
5:59 AM 71.6 °F - 69.8 °F 94% 29.84 in 10.0 mi East 8.1 mph - N/A   Overcast
6:58 AM 71.6 °F - 71.1 °F 98% 29.86 in 10.0 mi ENE 8.1 mph - N/A   Overcast
7:58 AM 72.3 °F - 71.8 °F 98% 29.88 in 10.0 mi East 5.8 mph - N/A   Overcast
8:09 AM 71.6 °F - 71.6 °F 100% 29.88 in 8.0 mi East 9.2 mph - N/A   Light Drizzle
8:20 AM 71.6 °F - 71.6 °F 100% 29.88 in 5.0 mi East 8.1 mph - N/A   Overcast
8:22 AM 71.6 °F - 71.6 °F 100% 29.88 in 5.0 mi East 9.2 mph - N/A   Light Drizzle
8:47 AM 71.6 °F - 71.6 °F 100% 29.89 in 5.0 mi East 5.8 mph - N/A   Light Drizzle
8:58 AM 72.5 °F - 72.0 °F 98% 29.89 in 3.0 mi East 6.9 mph - 0.01 in Rain Light Rain
9:01 AM 73.4 °F - 71.6 °F 94% 29.89 in 2.5 mi East 6.9 mph - N/A Rain Light Rain
9:06 AM 73.4 °F - 71.6 °F 94% 29.89 in 2.5 mi Variable 5.8 mph - N/A   Light Drizzle
9:21 AM 73.4 °F - 71.6 °F 94% 29.90 in 3.0 mi ENE 6.9 mph - N/A Rain Light Rain
9:41 AM 73.4 °F - 73.4 °F 100% 29.90 in 3.0 mi East 5.8 mph - N/A   Light Drizzle
9:46 AM 73.4 °F - 71.6 °F 94% 29.90 in 2.5 mi East 5.8 mph - N/A   Drizzle
9:51 AM 73.4 °F - 73.4 °F 100% 29.90 in 3.0 mi ENE 6.9 mph - N/A   Light Drizzle
9:58 AM 73.2 °F - 72.7 °F 98% 29.90 in 8.0 mi ENE 5.8 mph - 0.04 in   Light Drizzle
9:59 AM 73.4 °F - 73.4 °F 100% 29.90 in 9.0 mi ENE 5.8 mph - N/A   Overcast
10:04 AM 73.4 °F - 73.4 °F 100% 29.90 in 9.0 mi East 6.9 mph - N/A   Overcast
10:10 AM 73.4 °F - 73.4 °F 100% 29.90 in 7.0 mi ENE 6.9 mph - N/A   Light Drizzle
10:39 AM 73.4 °F - 73.4 °F 100% 29.91 in 7.0 mi East 6.9 mph - N/A   Overcast
10:41 AM 73.4 °F - 73.4 °F 100% 29.91 in 7.0 mi East 6.9 mph - N/A   Light Drizzle
10:56 AM 73.4 °F - 73.4 °F 100% 29.92 in 3.0 mi ENE 4.6 mph - N/A   Light Drizzle
10:58 AM 73.4 °F - 73.4 °F 100% 29.91 in 2.5 mi ENE 4.6 mph - 0.01 in   Light Drizzle
11:08 AM 73.4 °F - 73.4 °F 100% 29.92 in 4.0 mi East 5.8 mph - N/A   Light Drizzle
11:28 AM 75.2 °F - 73.4 °F 94% 29.92 in 10.0 mi ESE 5.8 mph - N/A   Light Drizzle
11:29 AM 75.2 °F - 73.4 °F 94% 29.92 in 10.0 mi East 4.6 mph - N/A   Overcast
11:54 AM 75.2 °F - 75.2 °F 100% 29.91 in 10.0 mi ESE 5.8 mph - N/A   Overcast
11:58 AM 75.6 °F - 74.8 °F 98% 29.91 in 10.0 mi East 5.8 mph - 0.00 in   Overcast
12:03 PM 75.2 °F - 75.2 °F 100% 29.91 in 10.0 mi East 5.8 mph - N/A   Overcast
12:48 PM 78.8 °F - 75.2 °F 89% 29.89 in 10.0 mi East 4.6 mph - N/A   Overcast
12:58 PM 78.8 °F - 75.7 °F 90% 29.89 in 10.0 mi ENE 5.8 mph - N/A   Overcast
1:03 PM 78.8 °F - 75.2 °F 89% 29.89 in 10.0 mi ENE 5.8 mph - N/A   Overcast
1:07 PM 78.8 °F - 75.2 °F 89% 29.89 in 8.0 mi ENE 6.9 mph - N/A Rain Light Rain
1:17 PM 78.8 °F - 77.0 °F 94% 29.89 in 9.0 mi ENE 8.1 mph - N/A Rain Light Rain
1:18 PM 78.8 °F - 77.0 °F 94% 29.89 in 10.0 mi East 8.1 mph - N/A   Mostly Cloudy
1:33 PM 80.6 °F 87.1 °F 77.0 °F 89% 29.88 in 10.0 mi ENE 6.9 mph - N/A   Scattered Clouds
1:48 PM 80.6 °F 86.2 °F 75.2 °F 84% 29.87 in 10.0 mi NE 6.9 mph - N/A   Mostly Cloudy
1:56 PM 80.6 °F 87.1 °F 77.0 °F 89% 29.87 in 9.0 mi NE 6.9 mph - N/A Rain Light Rain
1:58 PM 80.6 °F 87.1 °F 77.0 °F 89% 29.87 in 8.0 mi NE 8.1 mph - 0.01 in Rain Light Rain
2:03 PM 80.6 °F 87.1 °F 77.0 °F 89% 29.87 in 6.0 mi ENE 8.1 mph - N/A Rain Light Rain
2:10 PM 82.4 °F 90.9 °F 77.0 °F 84% 29.86 in 10.0 mi ENE 8.1 mph - N/A   Scattered Clouds
2:58 PM 82.8 °F 91.0 °F 76.3 °F 81% 29.85 in 10.0 mi ENE 8.1 mph - 0.01 in   Scattered Clouds
3:13 PM 80.6 °F 86.2 °F 75.2 °F 84% 29.87 in 10.0 mi WNW 9.2 mph - N/A   Mostly Cloudy
3:16 PM 80.6 °F 86.2 °F 75.2 °F 84% 29.87 in 8.0 mi WNW 10.4 mph - N/A Rain Light Rain
3:21 PM 77.0 °F - 73.4 °F 89% 29.87 in 1.8 mi West 11.5 mph - N/A Rain Heavy Rain
3:26 PM 75.2 °F - 71.6 °F 89% 29.87 in 1.0 mi WNW 8.1 mph - N/A Rain Heavy Rain
3:31 PM 75.2 °F - 71.6 °F 89% 29.87 in 1.5 mi NW 12.7 mph - N/A Rain Heavy Rain
3:36 PM 73.4 °F - 71.6 °F 94% 29.87 in 1.0 mi WNW 11.5 mph 17.3 mph N/A Rain Heavy Rain
3:41 PM 73.4 °F - 71.6 °F 94% 29.87 in 0.5 mi NNW 13.8 mph - N/A Fog , Rain Heavy Rain
3:46 PM 73.4 °F - 71.6 °F 94% 29.87 in 0.8 mi NNW 9.2 mph - N/A Rain Heavy Rain
3:51 PM 73.4 °F - 71.6 °F 94% 29.86 in 3.0 mi NNW 8.1 mph - N/A Rain Light Rain
3:56 PM 73.4 °F - 71.6 °F 94% 29.86 in 9.0 mi North 10.4 mph - N/A Rain Light Rain
3:58 PM 73.6 °F - 72.1 °F 95% 29.86 in 10.0 mi North 11.5 mph - 0.53 in Rain Light Rain
4:12 PM 75.2 °F - 71.6 °F 89% 29.86 in 10.0 mi North 5.8 mph - N/A   Partly Cloudy
4:58 PM 77.7 °F - 74.5 °F 90% 29.87 in 10.0 mi NNE 5.8 mph - 0.00 in   Clear
5:58 PM 77.9 °F - 75.9 °F 94% 29.88 in 10.0 mi NNE 10.4 mph - N/A   Scattered Clouds
6:13 PM 77.0 °F - 75.2 °F 94% 29.88 in 10.0 mi NNE 10.4 mph - N/A   Mostly Cloudy
6:48 PM 77.0 °F - 75.2 °F 94% 29.88 in 10.0 mi NE 10.4 mph - N/A   Mostly Cloudy
6:53 PM 75.2 °F - 75.2 °F 100% 29.88 in 10.0 mi NNE 11.5 mph - N/A   Overcast
6:58 PM 75.9 °F - 74.5 °F 95% 29.89 in 10.0 mi NE 10.4 mph - N/A   Overcast
7:06 PM 75.2 °F - 75.2 °F 100% 29.90 in 10.0 mi NE 9.2 mph - N/A Thunderstorm Thunderstorm
7:21 PM 75.2 °F - 75.2 °F 100% 29.90 in 10.0 mi ENE 8.1 mph - N/A   Overcast
7:42 PM 75.2 °F - 75.2 °F 100% 29.90 in 10.0 mi East 2.3 mph - N/A   Light Drizzle
7:52 PM 75.2 °F - 75.2 °F 100% 29.91 in 10.0 mi East 3.5 mph - N/A   Overcast
7:58 PM 75.6 °F - 74.7 °F 97% 29.91 in 10.0 mi East 3.5 mph - 0.00 in   Mostly Cloudy
8:03 PM 75.2 °F - 75.2 °F 100% 29.92 in 10.0 mi ESE 4.6 mph - N/A   Overcast
8:13 PM 75.2 °F - 75.2 °F 100% 29.92 in 10.0 mi SE 5.8 mph - N/A   Overcast
8:33 PM 75.2 °F - 73.4 °F 94% 29.93 in 10.0 mi SSE 2.3 mph - N/A   Overcast
8:40 PM 75.2 °F - 73.4 °F 94% 29.93 in 10.0 mi SSE 6.9 mph - N/A   Light Drizzle
8:55 PM 73.4 °F - 73.4 °F 100% 29.93 in 2.5 mi SE 5.8 mph - N/A Rain Heavy Rain
8:58 PM 74.3 °F - 73.0 °F 96% 29.93 in 2.5 mi SE 4.6 mph - 0.12 in Rain Heavy Rain
9:03 PM 73.4 °F - 73.4 °F 100% 29.93 in 3.0 mi SE 5.8 mph - N/A Rain Rain
9:18 PM 73.4 °F - 73.4 °F 100% 29.93 in 6.0 mi ESE 5.8 mph - N/A Rain Light Rain
9:48 PM 73.4 °F - 73.4 °F 100% 29.94 in 4.0 mi NE 3.5 mph - N/A Rain Rain
9:58 PM 73.6 °F - 73.0 °F 98% 29.95 in 5.0 mi NNE 3.5 mph - 0.12 in Rain Light Rain
10:13 PM 73.4 °F - 73.4 °F 100% 29.94 in 10.0 mi NE 4.6 mph - N/A Rain Light Rain
10:28 PM 73.4 °F - 73.4 °F 100% 29.94 in 10.0 mi NE 6.9 mph - N/A   Light Drizzle
10:31 PM 73.4 °F - 73.4 °F 100% 29.94 in 10.0 mi NE 6.9 mph - N/A   Scattered Clouds
10:38 PM 73.4 °F - 73.4 °F 100% 29.94 in 9.0 mi NE 6.9 mph - N/A Rain Light Rain
10:53 PM 73.4 °F - 73.4 °F 100% 29.94 in 10.0 mi NE 6.9 mph - N/A   Scattered Clouds
10:58 PM 73.6 °F - 73.0 °F 98% 29.94 in 10.0 mi ENE 6.9 mph - 0.01 in   Mostly Cloudy
10:59 PM 73.4 °F - 73.4 °F 100% 29.94 in 10.0 mi ENE 6.9 mph - N/A   Mostly Cloudy
11:04 PM 73.4 °F - 73.4 °F 100% 29.94 in 10.0 mi NE 6.9 mph - N/A   Mostly Cloudy
11:09 PM 73.4 °F - 73.4 °F 100% 29.94 in 10.0 mi NE 5.8 mph - N/A   Mostly Cloudy
11:12 PM 73.4 °F - 73.4 °F 100% 29.94 in 10.0 mi NE 8.1 mph - N/A Rain Light Rain
11:22 PM 73.4 °F - 73.4 °F 100% 29.94 in 2.5 mi ENE 9.2 mph - N/A Rain Heavy Rain
11:27 PM 73.4 °F - 73.4 °F 100% 29.94 in 1.8 mi East 6.9 mph - N/A Rain Rain
11:31 PM 73.4 °F - 73.4 °F 100% 29.94 in 1.5 mi ENE 2.3 mph - N/A Rain Heavy Rain
11:41 PM 73.4 °F - 73.4 °F 100% 29.94 in 4.0 mi East 6.9 mph - N/A Rain Light Rain
11:56 PM 73.4 °F - 73.4 °F 100% 29.93 in 8.0 mi East 6.9 mph - N/A Rain Light Rain
11:58 PM 73.2 °F - 72.9 °F 99% 29.93 in 8.0 mi East 8.1 mph - 0.29 in Rain Light Rain